This is the latest recevied weather packets stored in our database for station/object KB2SKP. If no packets are shown the sender has not sent any weather packets the latest 10 day(s).
| Time | Temp. | Humidity | Pressure | Rain* | Wind** | Luminosity | Snow |
|---|---|---|---|---|---|---|---|
| 1777922419 | 25° C | 32% | 1008.5 hPa | 0 mm | - | 38 W/m² | - |
| 1777922116 | 25° C | 31% | 1008.6 hPa | 0 mm | - | 37 W/m² | - |
| 1777919686 | 23.33° C | 32% | 1009 hPa | 0 mm | - | 49 W/m² | - |
| 1777918475 | 23.89° C | 31% | 1009.2 hPa | 0 mm | - | 202 W/m² | - |
| 1777918174 | 23.89° C | 34% | 1009.3 hPa | 0 mm | - | 46 W/m² | - |
| 1777917872 | 23.33° C | 33% | 1009.2 hPa | 0 mm | - | 88 W/m² | - |
| 1777916359 | 22.78° C | 33% | 1009.5 hPa | 0 mm | - | 36 W/m² | - |
| 1777916055 | 22.78° C | 33% | 1009.8 hPa | 0 mm | - | 35 W/m² | - |
| 1777915753 | 22.78° C | 34% | 1009.7 hPa | 0 mm | - | 34 W/m² | - |
| 1777915449 | 22.78° C | 34% | 1009.8 hPa | 0 mm | - | 34 W/m² | - |
| 1777915145 | 22.22° C | 33% | 1009.7 hPa | 0 mm | - | 34 W/m² | - |
| 1777914540 | 22.22° C | 34% | 1010.1 hPa | 0 mm | - | 17 W/m² | - |
| 1777914236 | 22.22° C | 33% | 1009.9 hPa | 0 mm | - | 38 W/m² | - |
| 1777913933 | 22.22° C | 34% | 1010 hPa | 0 mm | - | 92 W/m² | - |
| 1777913629 | 22.22° C | 33% | 1010.2 hPa | 0 mm | - | 36 W/m² | - |
| 1777913326 | 21.67° C | 33% | 1010 hPa | 0 mm | - | 34 W/m² | - |
| 1777913023 | 21.67° C | 33% | 1010.2 hPa | 0 mm | - | 36 W/m² | - |
| 1777912718 | 21.67° C | 36% | 1010.3 hPa | 0 mm | - | 35 W/m² | - |
| 1777912415 | 21.67° C | 35% | 1010.3 hPa | 0 mm | - | 34 W/m² | - |
| 1777912111 | 21.11° C | 36% | 1010.3 hPa | 0 mm | - | 34 W/m² | - |
| 1777911807 | 21.11° C | 35% | 1010.4 hPa | 0 mm | - | 34 W/m² | - |
| 1777911504 | 21.11° C | 34% | 1010.6 hPa | 0 mm | - | 34 W/m² | - |
| 1777911201 | 21.11° C | 35% | 1010.7 hPa | 0 mm | - | 33 W/m² | - |
| 1777910898 | 21.11° C | 35% | 1010.8 hPa | 0 mm | - | 34 W/m² | - |
| 1777909989 | 20.56° C | 34% | 1010.8 hPa | 0 mm | - | 37 W/m² | - |
* Rain latest hour (hover to see other rain measurements)
** Current wind speed in m/s (hover to see current wind gust speed)